Volver al catálogo

CZ-6A DEB

ActivoPO
NORAD 54929·DEBRIS·🇨🇳 China

Lanzado Nov 11, 2022 desde Taiyuan Satellite Launch Center

Loading…

Próximos Pases (próximas 24 horas)

TLE

ActualizadoSource: Space-Track

Época: Sep 13, 2026, 16:43 UTC

1 54929U 22151RS  26256.69719843  .00005989  00000-0  90600-3 0  9997
2 54929  98.6163 328.9139 0066660 355.2915   4.7656 14.73128823201339

Sigue CZ-6A DEB en tiempo real con AllMySat

Download on the App Store